x

Port Washington, Wi (pwaw3) Weather Station

3:40am - Tue 31st Mar 2015 All times are CDT. -5 hours from GMT.

  • Wind
    9mph, 17mph gusts
  • Air Temp 39°f
  • Sea Pressure 1009.1mb
  • Port Washington, Wi
  • Port Washington, Wi

More Historic Weather Station data

Upgrade to MSW Pro to gain access to the past 30 days of data for over 8000 Wavebouys and Weather Stations around the globe.

Join Pro

Comparision Forecast

View Surf forecast
   
Tue 03/31 3:40am 9 17 mph 1009.1mb 39f
3:30am 9 14 mph 1009.5mb 39f
3:20am 9 14 mph 1009.5mb 39f
3:10am 11 18 mph 1009.5mb 40f
3:00am 13 17 mph 1009.1mb 40f
2:40am 9 15 mph 1009.1mb 41f
2:30am 10 15 mph 1009.1mb 41f
2:20am 7 14 mph 1009.1mb 41f
2:10am 6 13 mph 1009.1mb 40f
2:00am 8 15 mph 1009.1mb 40f
1:40am 10 16 mph 1009.1mb 39f
1:30am 8 13 mph 1008.8mb 39f
1:20am 8 14 mph 1009.1mb 40f
1:10am 9 11 mph 1009.1mb 40f
1:00am 3 8 mph 1008.8mb 40f
12:40am 8 10 mph 1009.5mb 39f
12:30am 5 6 mph 1009.5mb 40f
12:20am 3 11 mph 1009.8mb 41f
12:10am 5
mph
1009.8mb 42f
12:00am 2 3 mph 1010.2mb 42f
Mon 03/30 11:40pm 3 7 mph 1010.2mb 41f
11:30pm 6
mph
1010.2mb 43f
11:20pm  -  6 mph 1010.8mb 44f
11:10pm 3 5 mph 1010.8mb 44f
11:00pm 3 5 mph 1010.8mb 44f
10:40pm  -  10 mph 1009.8mb 40f
10:30pm 8 11 mph 1009.5mb 41f
10:20pm 11 14 mph 1009.5mb 42f
10:10pm 7 9 mph 1010.5mb 43f
10:00pm  -  2 mph 1010.5mb 43f
9:40pm  -  6 mph 1010.8mb 42f
9:30pm 6 7 mph 1010.5mb 43f
9:20pm 3 10 mph 1010.8mb 42f
9:10pm 2 6 mph 1011.2mb 43f
9:00pm 2 3 mph 1011.9mb 44f
8:40pm 5 10 mph 1011.9mb 43f
8:30pm 5 9 mph 1011.9mb 42f
8:20pm 5 7 mph 1011.9mb 43f
8:10pm 6 7 mph 1011.9mb 44f
8:00pm 3 5 mph 1011.9mb 44f
7:40pm  -  2 mph 1011.9mb 45f
7:30pm  -  1 mph 1012.5mb 45f
7:20pm  -  5 mph 1012.2mb 45f
7:10pm 5 6 mph 1012.2mb 45f
7:00pm 5 6 mph 1012.2mb 46f
6:40pm  -  1 mph 1012.5mb 48f
6:30pm 2 5 mph 1012.5mb 49f
6:20pm  -  mph 1012.5mb 49f
6:10pm  -  5 mph 1012.5mb 49f
6:00pm 2 11 mph 1012.9mb 49f
5:40pm 10 14 mph 1013.5mb 52f
5:30pm 7 14 mph 1013.5mb 53f
5:20pm 8 14 mph 1013.5mb 54f
5:10pm 9 15 mph 1013.5mb 54f
5:00pm 9 14 mph 1013.2mb 55f
4:40pm 10 17 mph 1013.2mb 55f
4:30pm 11 18 mph 1013.5mb 56f
4:20pm 8 14 mph 1013.5mb 57f
4:10pm 11 17 mph 1013.5mb 57f
4:00pm 10 16 mph 1013.5mb 57f
3:40pm 10 17 mph 1013.9mb 57f
3:30pm 8 18 mph 1013.9mb 57f
3:20pm 10 16 mph 1013.9mb 57f
3:10pm 10 15 mph 1014.2mb 57f
3:00pm 9 15 mph 1014.2mb 57f
2:40pm 9 14 mph 1014.6mb 56f
2:30pm 8 11 mph 1014.6mb 56f
2:20pm 7 15 mph 1014.6mb 56f
2:10pm 9 17 mph 1014.6mb 56f
2:00pm 8 18 mph 1014.6mb 56f
1:40pm 10 17 mph 1014.6mb 56f
1:30pm 9 21 mph 1014.6mb 56f
1:20pm 13 21 mph 1014.6mb 56f
1:10pm 15 17 mph 1014.6mb 56f
1:00pm 10 18 mph 1014.9mb 56f
12:40pm 11 21 mph 1014.9mb 55f
12:30pm 10 20 mph 1015.2mb 55f
12:20pm 11 24 mph 1015.2mb 55f
12:10pm 13 21 mph 1015.2mb 54f
12:00pm 9 17 mph 1015.2mb 54f
11:40am 10 17 mph 1015.2mb 53f
11:30am 10 20 mph 1015.6mb 52f
11:20am 8 18 mph 1015.6mb 52f
11:10am 10 18 mph 1015.6mb 52f
11:00am 11 23 mph 1015.6mb 51f
10:40am 10 20 mph 1015.6mb 51f
10:30am 11 21 mph 1015.6mb 50f
10:20am 9 21 mph 1015.9mb 50f
10:10am 15 22 mph 1015.6mb 49f
10:00am 10 24 mph 1015.9mb 49f
9:40am 13 21 mph 1015.6mb 48f
9:30am 9 21 mph 1015.6mb 48f
9:20am 13 20 mph 1015.2mb 47f
9:10am 13 21 mph 1015.2mb 46f
9:00am 13 23 mph 1015.2mb 46f
8:40am 8 16 mph 1015.2mb 44f
8:30am 11 20 mph 1015.2mb 44f
8:20am 11 16 mph 1015.2mb 43f
8:10am 6 11 mph 1015.2mb 42f
8:00am 7 13 mph 1014.9mb 40f
7:40am 6 9 mph 1014.9mb 39f
7:30am 7 11 mph 1014.9mb 39f
7:20am 7 13 mph 1014.9mb 38f
7:10am 8 14 mph 1014.9mb 37f
7:00am 8 11 mph 1014.6mb 37f
6:40am 7 9 mph 1014.6mb 36f
6:30am 6 9 mph 1014.6mb 35f
6:20am 7 10 mph 1014.2mb 36f
6:10am 7 10 mph 1014.2mb 36f
6:00am 6 8 mph 1014.2mb 37f
5:40am 6 8 mph 1013.9mb 37f
5:30am 6 9 mph 1013.9mb 38f
5:20am 7 11 mph 1013.9mb 38f
5:10am 6 9 mph 1013.9mb 38f
5:00am 6 10 mph 1013.9mb 38f
4:40am 5 9 mph 1013.5mb 38f
4:30am 5 8 mph 1013.5mb 38f
4:20am 5 8 mph 1013.5mb 38f
4:10am 5 6 mph 1013.5mb 38f
4:00am 5 7 mph 1013.5mb 38f
3:50am 3 7 mph 1013.2mb 38f
3:40am 3 6 mph 1013.2mb 39f
3:30am 5 7 mph 1013.2mb 39f
3:20am 3 7 mph 1013.2mb 40f
3:10am 5 8 mph 1013.2mb 40f
3:00am 6 8 mph 1013.2mb 40f
2:50am 5 11 mph 1013.2mb 40f
2:40am 7 10 mph 1013.2mb 40f
2:30am 6 11 mph 1013.2mb 40f
2:20am 7 10 mph 1012.9mb 40f
2:10am 8 10 mph 1012.9mb 40f
2:00am 7 13 mph 1012.9mb 40f
1:50am 7 10 mph 1012.9mb 41f
1:40am 7 13 mph 1012.9mb 41f
1:30am 9 13 mph 1012.5mb 41f
1:20am 9 14 mph 1012.5mb 40f
1:10am 8 13 mph 1012.5mb 41f
1:00am 6 10 mph 1012.5mb 40f
12:50am 7 11 mph 1012.5mb 40f
12:40am 8 13 mph 1012.2mb 40f
12:30am 8 14 mph 1012.2mb 40f
12:20am 8 10 mph 1012.2mb 40f
12:10am 7 13 mph 1012.2mb 41f
12:00am 8 13 mph 1012.2mb 41f
Sun 03/29 11:50pm 7 10 mph 1012.2mb 41f
11:40pm 6 9 mph 1011.9mb 42f
11:30pm 6 9 mph 1011.9mb 42f
11:20pm 3 9 mph 1011.9mb 42f
11:10pm 8 11 mph 1011.9mb 42f
11:00pm 7 13 mph 1011.5mb 42f
10:50pm 8 13 mph 1011.5mb 42f
10:40pm 9 14 mph 1011.5mb 42f
10:30pm 9 14 mph 1011.5mb 42f
10:20pm 9 18 mph 1011.5mb 42f
10:10pm 7 16 mph 1011.2mb 42f
10:00pm 7 16 mph 1011.2mb 42f
9:50pm 11 18 mph 1010.8mb 42f
9:40pm 10 21 mph 1010.5mb 42f
9:30pm 8 20 mph 1009.8mb 42f
9:20pm 13 21 mph 1009.8mb 42f
9:10pm 14 22 mph 1009.5mb 43f
9:00pm 9 17 mph 1009.5mb 43f
8:50pm 13 22 mph 1009.1mb 43f
8:40pm 9 17 mph 1008.8mb 43f
8:30pm 8 16 mph 1008.8mb 43f
8:20pm 9 17 mph 1008.5mb 43f
8:10pm 11 22 mph 1008.1mb 43f
8:00pm 8 23 mph 1008.1mb 43f
7:50pm 11 23 mph 1007.8mb 44f
7:40pm 13 24 mph 1007.5mb 44f
7:30pm 15 25 mph 1007.1mb 44f
7:20pm 8 22 mph 1006.8mb 44f
7:10pm 15 29 mph 1006.4mb 44f
7:00pm 16 25 mph 1006.1mb 44f
6:50pm 15 26 mph 1005.8mb 44f
6:40pm 15 25 mph 1005.4mb 43f
6:30pm 10 21 mph 1005.1mb 43f
6:20pm 14 21 mph 1005.1mb 42f
6:10pm 11 21 mph 1005.1mb 41f
6:00pm 10 20 mph 1004.7mb 40f
5:50pm 13 17 mph 1004.7mb 40f
5:40pm 9 16 mph 1004.7mb 39f
5:30pm 9 15 mph 1004.7mb 39f
5:20pm 9 17 mph 1004.7mb 39f
5:10pm 10 15 mph 1004.7mb 39f
5:00pm 9 20 mph 1004.4mb 39f
4:50pm 10 17 mph 1004.7mb 39f
4:40pm 10 21 mph 1004.4mb 40f
4:30pm 10 21 mph 1004.4mb 40f
4:20pm 17 25 mph 1004.7mb 40f
4:10pm 11 29 mph 1005.1mb 39f
4:00pm 10 20 mph 1005.1mb 39f
3:50pm 11 21 mph 1005.8mb 39f
3:40pm 14 26 mph 1005.8mb 38f
3:30pm 13 22 mph 1006.1mb 38f
3:20pm 14 28 mph 1006.1mb 38f
3:10pm 14 24 mph 1006.4mb 37f
3:00pm 14 26 mph 1006.4mb 37f
2:50pm 17 24 mph 1006.8mb 37f
2:40pm 14 25 mph 1006.8mb 37f
2:30pm 17 24 mph 1007.1mb 37f
2:22pm 17 28 mph 1007.1mb 36f
2:20pm 17 28 mph 1006.8mb 36f
2:10pm 14 25 mph 1007.5mb 36f
1:40pm 15 28 mph 1008.1mb 35f
1:30pm 15 22 mph 1008.5mb 35f
1:22pm 13 24 mph 1008.8mb 35f
1:20pm 14 23 mph 1008.8mb 35f
1:10pm 16 24 mph 1008.8mb 35f
1:00pm 14 23 mph 1009.1mb 35f
12:50pm 16 23 mph 1009.5mb 35f
12:40pm 13 24 mph 1009.5mb 35f
12:30pm 16 25 mph 1009.5mb 35f
12:22pm 15
mph
1009.8mb 36f
12:20pm 15 26 mph 1010.2mb 36f
12:10pm 22 31 mph 1009.5mb 36f
12:00pm 21 30 mph 1009.5mb 36f
11:50am 21 31 mph 1009.8mb 36f
11:41am 16 29 mph 1010.2mb 36f
11:40am 16 28 mph 1010.2mb 36f
11:30am 15 28 mph 1010.8mb 36f
11:21am 15 28 mph 1011.2mb 36f
11:20am 15 28 mph 1011.2mb 36f
11:10am 17 26 mph 1011.5mb 36f
11:00am 16 24 mph 1011.9mb 36f
10:50am 13 24 mph 1012.2mb 36f
10:40am 16 24 mph 1012.5mb 37f
10:30am 18 25 mph 1012.9mb 37f
10:21am 17
mph
1012.9mb 38f
10:20am 17 26 mph 1012.9mb 38f
10:10am 17 25 mph 1013.2mb 38f
10:00am 18 26 mph 1013.5mb 37f
9:50am 20 30 mph 1013.9mb 37f
9:40am 23 28 mph 1013.9mb 37f
9:30am 21 26 mph 1014.6mb 37f
9:20am 16 22 mph 1014.9mb 37f
9:10am 13 22 mph 1015.6mb 37f
9:00am 14 21 mph 1015.9mb 37f
8:50am 13 20 mph 1016.3mb 37f
8:40am 14 22 mph 1016.6mb 35f
8:30am 13 22 mph 1016.6mb 35f
8:20am 14 25 mph 1016.6mb 34f
8:10am 16 25 mph 1016.6mb 34f
8:00am 17 24 mph 1016.9mb 34f
7:50am 14 21 mph 1017.3mb 33f
7:40am 14 20 mph 1017.9mb 33f
7:30am 11 16 mph 1018.3mb 33f
7:20am 11 20 mph 1018.6mb 33f
7:10am 10 14 mph 1019mb 32f
7:00am 9 17 mph 1019.3mb 32f
6:50am 9 18 mph 1019mb 32f
6:40am 10 15 mph 1019mb 31f
6:30am 10 16 mph 1019mb 31f
6:20am 9 13 mph 1019mb 31f
6:10am 8 14 mph 1019mb 31f
6:00am 7 16 mph 1019mb 31f
5:50am 10 16 mph 1019mb 32f
5:40am 10 18 mph 1019mb 31f
5:30am 14 20 mph 1019mb 31f
5:20am 8 22 mph 1019mb 31f
5:10am 8 14 mph 1019.3mb 31f
5:00am 8 14 mph 1020mb 31f
4:50am 9 13 mph 1020mb 31f
4:40am 9 16 mph 1020mb 31f
4:30am 8 16 mph 1020mb 31f
4:20am 8 14 mph 1020mb 31f
4:10am 8 13 mph 1020mb 31f
4:00am 6 13 mph 1020.3mb 31f
3:50am 9 14 mph 1020.3mb 31f
3:40am 9 15 mph 1020.7mb 31f
3:30am 8 15 mph 1020.7mb 31f
3:20am 11 16 mph 1021mb 30f
3:10am 7 13 mph 1021.3mb 30f
3:00am 8 14 mph 1021.3mb 30f
2:50am 10 14 mph 1021.7mb 29f
2:40am 9 13 mph 1021.7mb 29f
2:30am 9 13 mph 1022mb 29f
2:20am 9 13 mph 1022.4mb 28f
2:10am 9 14 mph 1022.4mb 28f
2:00am 8 13 mph 1022.7mb 28f
1:50am 7 11 mph 1022.7mb 28f
1:40am 9 11 mph 1023mb 28f
1:30am 9 14 mph 1023mb 28f
1:20am 10 13 mph 1023.4mb 28f
1:10am 10 15 mph 1023.4mb 28f
1:00am 10 14 mph 1023.7mb 28f
12:50am 7 10 mph 1023.7mb 28f
12:40am 7 10 mph 1023.7mb 28f
12:30am 7 10 mph 1024mb 28f
12:20am 7 9 mph 1024mb 28f
12:10am 7 9 mph 1024mb 28f
12:00am 6 10 mph 1024.4mb 28f
Sat 03/28 11:50pm 5 8 mph 1024.4mb 28f
11:40pm 6 9 mph 1024.4mb 28f
11:30pm 6 9 mph 1024.4mb 28f
11:20pm 7 9 mph 1024.7mb 27f
11:10pm 6 8 mph 1024.7mb 27f
11:00pm 3 9 mph 1024.7mb 28f
10:50pm 6 11 mph 1024.7mb 28f
10:40pm 7 13 mph 1024.7mb 29f
10:30pm 9 14 mph 1024.4mb 29f
10:20pm 10 15 mph 1024.7mb 29f
10:10pm 9 13 mph 1024.7mb 29f
10:00pm 9 14 mph 1024.7mb 29f
9:50pm 7 11 mph 1024.7mb 29f
9:40pm 8 13 mph 1025.1mb 30f
9:30pm 8 11 mph 1025.1mb 30f
9:20pm 6 15 mph 1025.4mb 30f
9:10pm 9 17 mph 1025.4mb 31f
9:00pm 14 18 mph 1025.4mb 31f
8:50pm 15 21 mph 1025.4mb 31f
8:40pm 17 22 mph 1025.4mb 31f
8:30pm 17 22 mph 1025.1mb 31f
8:20pm 16 21 mph 1025.1mb 31f
8:10pm 15 21 mph 1025.1mb 31f
8:00pm 16 20 mph 1025.1mb 31f
7:50pm 17 22 mph 1025.1mb 31f
7:40pm 15 20 mph 1025.1mb 31f
7:30pm 15 20 mph 1025.1mb 31f
7:20pm 16 20 mph 1025.1mb 30f
7:10pm 15 20 mph 1025.1mb 30f
7:00pm 16 20 mph 1025.1mb 31f
6:50pm 14 20 mph 1025.4mb 31f
6:40pm 18 21 mph 1025.1mb 31f
6:30pm 17 18 mph 1025.4mb 31f
6:20pm 15 18 mph 1025.4mb 31f
6:10pm 16 18 mph 1025.7mb 32f
6:00pm 16 18 mph 1025.7mb 32f
5:50pm 15 18 mph 1025.4mb 32f
5:40pm 15 17 mph 1025.7mb 32f
5:30pm 13 17 mph 1025.7mb 32f
5:20pm 15 17 mph 1025.7mb 32f
5:10pm 14 17 mph 1025.4mb 32f
5:00pm 15 17 mph 1025.7mb 32f
4:50pm 15 18 mph 1025.7mb 32f
4:40pm 14 18 mph 1025.7mb 32f
4:30pm 15 18 mph 1025.7mb 32f
4:20pm 14 17 mph 1025.7mb 32f
4:10pm 13 17 mph 1025.7mb 32f
4:00pm 14 16 mph 1026.1mb 31f
3:50pm 13 17 mph 1026.1mb 31f
3:40pm 13 15 mph 1026.1mb 31f
3:30pm 14 16 mph 1026.4mb 31f
3:20pm 13 15 mph 1026.4mb 31f
3:10pm 13 15 mph 1026.4mb 31f
3:00pm 11 14 mph 1026.8mb 31f
2:50pm 13 14 mph 1026.4mb 31f
2:40pm 10 14 mph 1026.4mb 31f
2:30pm 11 14 mph 1026.4mb 31f
2:20pm 10 14 mph 1027.1mb 30f
2:10pm 11 13 mph 1026.8mb 31f
2:00pm 10 13 mph 1027.1mb 30f
1:50pm 9 13 mph 1027.1mb 30f
1:40pm 9 13 mph 1027.4mb 30f
1:30pm 9 11 mph 1027.4mb 31f
1:20pm 8 11 mph 1027.8mb 30f
1:10pm 8 10 mph 1027.4mb 30f
1:00pm 9 11 mph 1027.4mb 30f
12:50pm 9 10 mph 1027.4mb 30f
12:40pm 8 10 mph 1027.8mb 30f
12:30pm 8 9 mph 1027.8mb 30f
12:20pm 8 10 mph 1028.1mb 30f
12:10pm 7 9 mph 1028.1mb 30f
12:00pm 7 9 mph 1028.4mb 29f
11:50am 6 8 mph 1028.1mb 29f
11:40am 7 9 mph 1028.1mb 30f
11:30am 7 9 mph 1028.4mb 30f
11:20am 8 9 mph 1028.1mb 29f
11:10am 7 8 mph 1028.4mb 29f
11:00am 7 8 mph 1028.1mb 29f
10:50am 6 9 mph 1028.1mb 29f
10:40am 7 9 mph 1028.1mb 28f
10:30am 6 8 mph 1028.1mb 29f
10:20am 6 8 mph 1028.1mb 28f
10:10am 6 8 mph 1028.1mb 28f
10:00am 5 7 mph 1028.1mb 28f
9:50am 5 6 mph 1028.1mb 29f
9:40am 6 7 mph 1028.1mb 28f
9:30am 3 6 mph 1027.8mb 29f
9:20am 3 7 mph 1027.8mb 29f
9:10am 2 6 mph 1027.8mb 29f
9:00am 3 5 mph 1027.8mb 29f
8:50am 5 6 mph 1027.8mb 27f
8:40am 3 5 mph 1027.8mb 27f
8:30am 3 5 mph 1027.4mb 26f
8:20am 3 6 mph 1027.4mb 25f
8:10am 5 7 mph 1027.4mb 24f
8:00am 6 8 mph 1027.1mb 23f
7:50am 6 8 mph 1027.1mb 23f
7:40am 6 9 mph 1027.1mb 22f
7:30am 7 8 mph 1026.8mb 21f
7:20am 7 9 mph 1026.8mb 20f
7:10am 7 8 mph 1026.4mb 21f
7:00am 6 9 mph 1026.4mb 20f
6:50am 6 9 mph 1026.4mb 20f
6:40am 7 8 mph 1026.4mb 20f
6:30am 7 8 mph 1026.1mb 20f
6:20am 6 8 mph 1026.1mb 20f
6:10am 7 9 mph 1026.1mb 20f
6:00am 7 8 mph 1025.7mb 20f
5:50am 6 8 mph 1025.7mb 19f
5:40am 6 8 mph 1025.7mb 20f
5:30am 6 8 mph 1025.4mb 20f
5:20am 6 8 mph 1025.4mb 20f
5:10am 6 9 mph 1025.4mb 19f
5:00am 6 9 mph 1025.4mb 20f
4:50am 8
mph
1025.1mb 20f
4:40am 7 9 mph 1025.1mb 20f
4:30am 6 7 mph 1025.1mb 21f
4:20am 6 7 mph 1025.1mb 21f
4:10am 6 7 mph 1024.7mb 21f
4:00am 6 7 mph 1024.7mb 20f
3:40am 7 9 mph 1024.7mb 20f
3:30am 7 8 mph 1024.7mb 20f
3:20am 7 8 mph 1024.7mb 20f
3:10am 6 8 mph 1024.7mb 20f
3:00am 5 7 mph 1024.7mb 20f
2:50am 5 6 mph 1024.7mb 21f
2:40am 5 6 mph 1024.7mb 21f
2:30am 5
mph
1024.7mb 22f
2:20am 3 5 mph 1024.7mb 21f
2:10am 3 5 mph 1024.7mb 21f
2:00am 3 5 mph 1024.7mb 21f
1:50am 3 6 mph 1024.7mb 22f
1:40am 3 6 mph 1024.4mb 22f
1:30am 3 6 mph 1024.4mb 22f
1:20am 5 6 mph 1024.4mb 22f
1:10am 5 7 mph 1024.4mb 22f
1:00am 5 7 mph 1024.7mb 22f
12:50am 5 6 mph 1024.4mb 22f
12:40am 5 7 mph 1024.4mb 22f
12:30am 5 6 mph 1024.4mb 22f
12:20am 5 7 mph 1024.4mb 22f
12:10am 5 6 mph 1024.4mb 22f
12:00am 3 5 mph 1024.4mb 22f
Fri 03/27 11:40pm 3 6 mph 1024mb 22f
11:30pm 5 6 mph 1024.4mb 22f
11:20pm 5 6 mph 1024.4mb 22f
11:10pm 3 6 mph 1024.4mb 22f
11:00pm 5 6 mph 1024.4mb 22f
10:50pm 3
mph
1024.4mb 22f
10:40pm 3 5 mph 1024.4mb 23f
10:30pm 3 5 mph 1024.4mb 23f
10:20pm 3 5 mph 1024mb 23f
10:10pm 3 6 mph 1024mb 23f
10:00pm 3 7 mph 1024mb 23f
9:50pm 5 7 mph 1024mb 23f
9:40pm 3 6 mph 1024mb 23f
9:30pm 3 5 mph 1024mb 23f
9:20pm 3 5 mph 1024mb 23f
9:10pm 2 7 mph 1023.7mb 24f
9:00pm 3 6 mph 1023.7mb 24f
8:50pm 3 6 mph 1023.7mb 24f
8:40pm 3 6 mph 1023.7mb 24f
8:30pm 2 8 mph 1023.7mb 24f
8:20pm 6 9 mph 1023.7mb 24f
8:10pm 6 9 mph 1023.7mb 24f
8:00pm 6 9 mph 1023.7mb 24f
7:50pm 7 11 mph 1023.4mb 25f
7:40pm 6 11 mph 1023.4mb 25f
7:30pm 7 13 mph 1023.4mb 25f
7:20pm 7 13 mph 1023.4mb 25f
7:10pm 8 16 mph 1023.4mb 25f
7:00pm 10 17 mph 1023mb 26f
6:50pm 15 20 mph 1023mb 26f
6:40pm 13 17 mph 1023mb 26f
6:30pm 15 22 mph 1023mb 26f
6:20pm 15 20 mph 1023mb 26f
6:10pm 16 20 mph 1023mb 26f
6:00pm 15 20 mph 1022.7mb 26f
5:50pm 15 20 mph 1022.7mb 26f
5:40pm 14 21 mph 1023mb 26f
5:30pm 16 21 mph 1022.7mb 27f
5:20pm 15 22 mph 1022.7mb 27f
5:10pm 18 21 mph 1022.7mb 27f
5:00pm 17 22 mph 1022.7mb 27f
4:50pm 16 23 mph 1022.4mb 27f
4:40pm 18 23 mph 1022.4mb 27f
4:30pm 17 22 mph 1022.7mb 27f
4:20pm 17 24 mph 1022.4mb 27f
4:10pm 16 22 mph 1022.4mb 27f
4:00pm 17 21 mph 1022.4mb 27f
3:50pm 17 23 mph 1022.7mb 26f
3:40pm 21 23 mph 1022.7mb 27f
3:30pm 17 22 mph 1022.7mb 26f
3:20pm 17 23 mph 1022.7mb 26f
3:10pm 20 22 mph 1022.7mb 26f
3:00pm 18 22 mph 1022.7mb 26f
2:50pm 17 23 mph 1022.7mb 26f
2:40pm 18 23 mph 1022.7mb 27f
2:30pm 17 22 mph 1022.7mb 27f
2:20pm 16 22 mph 1022.7mb 27f
2:10pm 10 21 mph 1023mb 27f
2:00pm 16 21 mph 1023mb 27f
1:50pm 10 17 mph 1023mb 28f
1:40pm 13 21 mph 1023mb 27f
1:30pm 13 17 mph 1023mb 27f
1:20pm 9 15 mph 1023mb 26f
1:10pm 7 18 mph 1023mb 26f
1:00pm 8 16 mph 1023mb 26f
12:50pm 7 15 mph 1023mb 26f
12:40pm 10 22 mph 1023mb 26f
12:30pm 10 20 mph 1023mb 26f
12:20pm 11 18 mph 1023mb 26f
12:10pm 10 22 mph 1023mb 24f
12:00pm 8 16 mph 1023mb 25f
11:40am 8 15 mph 1023.4mb 24f
11:30am 9 16 mph 1023.7mb 24f
11:20am 13 20 mph 1023.7mb 24f
11:10am 10 23 mph 1023.4mb 23f
11:00am 7 17 mph 1023.4mb 23f
10:50am 13 20 mph 1023.4mb 23f
10:40am 11 21 mph 1023.4mb 23f
10:30am 9 15 mph 1023.7mb 23f
10:20am 9 15 mph 1023.4mb 23f
10:10am 9 17 mph 1023.4mb 24f
10:00am 8 20 mph 1023.4mb 23f
9:50am 10 18 mph 1023.4mb 23f
9:40am 11 17 mph 1023mb 22f
9:30am 8 20 mph 1023.4mb 23f